Wind_Speed
11 13 11 9 9 6 4 4 4 2 2 3 2 1 1 1 3 3 3 4 4 4 4 4 4 4 4 5 6 5 6 6 6 8 8 8 8 7 8 8 8 6 5
16 13 11 11 11 9 7 6 5 5 2 1 2 2 1 1 2 4 4 4 4 4 4 4 4 5 4 4 4 5 7 7 7 7 8 8 8 8 7 7 7 7 6
20 14 12 11 13 11 9 7 5 4 2 1 1 3 2 2 1 5 5 4 3 4 5 5 5 5 5 5 5 6 7 8 9 10 10 6 8 7 8 12 10 8 6
21 20 15 11 14 13 11 8 5 5 2 2 2 3 3 1 2 6 6 5 4 4 5 4 4 4 5 5 6 7 8 9 8 8 11 9 10 9 6 6 3 3 4
16 17 21 15 14 16 12 11 8 6 5 4 3 5 3 2 3 6 7 7 4 3 4 3 3 3 4 6 7 7 8 8 7 5 6 7 5 5 5 4 3 2 3
15 12 18 20 16 18 15 13 11 10 7 6 6 5 4 3 4 7 7 8 3 2 3 3 2 2 4 5 7 7 8 7 5 4 5 6 5 4 3 2 1 1 2
15 14 13 18 20 18 17 15 14 13 10 9 8 7 6 5 6 9 9 8 4 1 1 2 2 1 3 4 6 7 7 7 7 6 5 4 3 2 2 1 1 2 2
20 17 17 16 19 21 19 19 19 16 13 11 10 10 9 8 8 10 10 9 8 5 3 2 2 1 2 4 5 6 6 7 6 6 5 4 3 3 3 3 4 4 4
25 24 19 17 19 22 23 21 21 20 17 14 13 13 12 11 11 11 12 11 11 9 6 4 3 3 2 4 5 6 6 6 6 6 6 6 5 5 5 5 6 6 6
19 25 25 22 21 23 25 24 24 22 22 20 18 17 17 16 14 13 13 12 13 12 9 7 6 4 4 4 6 6 7 7 7 8 6 7 7 7 8 8 8 8 8
20 21 24 25 25 26 25 26 26 25 25 24 22 21 20 18 17 17 16 16 15 15 13 11 9 7 6 6 6 7 8 8 8 8 7 9 9 9 10 10 11 11 10
22 24 25 25 26 29 29 30 29 26 26 27 25 23 21 19 20 20 20 19 19 18 17 14 12 10 9 8 8 9 10 10 10 10 8 10 10 10 11 11 12 12 11
24 25 28 29 30 30 31 31 31 30 31 31 29 27 23 21 21 22 22 20 20 19 19 16 13 12 12 11 11 11 11 11 11 11 9 11 11 11 11 11 11 12 11
26 26 29 31 34 35 35 34 34 33 32 33 33 31 29 27 26 24 21 20 22 22 20 19 18 17 17 16 14 14 13 13 13 12 11 12 12 12 12 12 12 12 11
28 28 29 32 34 38 40 39 37 35 35 34 34 36 35 33 32 31 27 24 23 24 23 23 21 20 20 19 19 18 17 15 16 15 12 13 13 14 13 13 13 12 12
30 30 31 33 34 38 42 43 44 41 39 39 37 36 36 35 34 33 31 29 28 26 25 24 22 22 23 23 22 23 21 20 19 19 16 15 15 15 15 15 14 14 14
34 34 34 35 37 39 41 44 48 47 44 43 41 40 37 35 34 33 33 35 35 31 30 28 28 26 26 25 26 26 24 23 22 22 21 18 18 17 17 17 18 16 16
41 40 37 38 40 41 42 44 47 51 51 48 47 43 41 39 37 37 38 38 38 35 32 31 29 31 29 28 27 25 26 25 26 25 22 23 22 20 20 21 20 20 20
41 43 42 37 40 42 44 46 48 50 52 53 51 48 46 43 39 39 34 38 36 38 35 32 29 30 30 29 29 29 27 27 28 27 27 25 26 24 24 23 24 24 24
44 44 43 42 39 41 42 46 48 51 53 53 54 53 49 47 43 40 43 41 39 39 37 39 36 32 32 30 33 32 27 27 33 27 30 29 29 28 28 28 28 28 27
45 47 47 44 41 42 42 44 46 49 51 54 53 55 55 49 47 45 43 42 40 41 35 38 36 35 33 32 31 33 34 29 27 24 26 27 32 32 32 30 31 32 32
49 48 50 47 44 41 42 42 42 45 49 53 54 54 55 51 48 48 46 45 41 43 39 34 31 35 38 30 31 28 30 30 30 28 27 27 27 28 32 32 34 35 40
47 51 50 52 46 43 40 40 40 41 45 49 53 55 56 53 50 49 47 46 43 41 40 39 37 30 41 33 32 30 29 28 28 29 30 30 30 29 31 33 36 40 42
45 47 48 48 46 43 41 41 41 39 41 45 47 44 52 55 53 50 46 49 45 50 38 35 34 31 36 38 32 31 29 31 36 35 34 34 34 36 37 37 36 39 41
35 36 39 40 40 38 39 39 39 39 39 42 42 39 43 52 56 53 49 51 43 44 38 41 38 34 35 33 36 38 35 35 36 38 40 38 42 45 43 44 42 39 39
25 19 23 30 32 30 32 34 36 36 36 39 40 39 38 42 52 55 49 48 44 41 42 40 41 39 39 35 34 35 37 39 38 39 43 44 45 48 48 46 45 43 38
Wind_Direction
244 221 223 222 210 198 172 150 138 131 57 99 83 62 110 165 148 133 132 129 97 53 27 40 52 73 96 106 110 113 110 118 123 123 120 117 121 126 122 118 105 116 125
235 210 215 219 212 201 192 170 165 148 118 73 96 55 357 302 155 143 143 125 94 61 40 59 78 95 101 109 122 125 131 139 134 123 120 124 129 132 128 113 103 91 117
238 214 213 222 218 208 200 189 182 166 150 94 319 6 354 330 166 150 149 133 104 64 50 66 82 96 107 117 126 138 147 144 142 133 105 115 116 120 123 101 104 106 79
239 223 217 224 224 213 206 201 194 197 201 221 195 281 319 319 182 159 160 151 118 70 54 71 81 101 115 121 135 144 147 148 151 144 147 143 132 130 111 111 99 81 65
244 235 223 221 224 214 210 212 206 209 208 216 241 229 278 256 178 171 174 164 136 64 54 56 77 101 119 130 140 144 148 151 151 167 148 134 154 148 139 131 120 94 61
235 241 236 218 219 213 212 211 212 210 210 215 230 238 251 238 195 182 184 182 178 36 36 32 50 97 123 136 146 150 154 156 156 162 149 149 155 156 153 149 122 31 11
224 225 230 224 217 208 209 215 218 215 216 218 229 236 232 216 202 194 194 197 205 238 336 358 2 91 135 154 162 164 167 170 170 182 156 167 166 178 194 226 270 293 317
231 229 223 226 223 215 212 216 220 222 225 224 235 237 229 216 208 205 202 197 210 237 256 277 306 275 176 176 180 182 186 188 190 189 169 195 208 229 255 279 295 302 308
236 235 232 230 229 222 220 223 223 227 228 225 233 233 231 224 215 212 209 205 208 232 239 252 264 252 217 195 194 200 205 209 211 220 202 220 227 239 255 268 281 292 296
246 242 238 236 232 229 230 232 231 234 237 237 231 230 229 227 220 220 220 219 217 226 236 242 248 255 243 223 213 213 218 224 224 232 222 241 249 258 264 269 274 279 284
245 245 244 242 242 243 238 237 238 239 240 240 237 234 231 225 224 220 224 226 224 227 243 247 251 249 248 239 230 229 234 239 240 244 244 251 257 264 268 273 277 279 280
251 244 241 242 241 244 245 248 248 242 243 245 242 241 239 233 230 226 226 227 228 231 237 248 253 258 259 253 245 238 239 244 248 250 249 257 264 271 276 278 280 281 283
256 250 243 241 240 243 246 247 248 252 248 247 244 240 238 239 240 233 233 234 235 239 240 247 251 263 263 256 252 249 250 251 254 260 259 267 269 271 274 277 281 282 282
262 257 252 244 243 242 244 246 249 249 250 247 242 240 244 244 245 243 239 231 234 238 239 240 249 256 259 257 249 251 253 259 260 262 265 271 275 278 278 280 280 279 278
267 262 256 253 247 243 244 244 245 247 252 251 245 246 248 248 248 250 249 247 242 242 244 244 248 248 250 254 254 253 254 253 259 265 268 270 277 279 278 278 275 273 275
269 265 261 256 252 248 244 244 244 244 249 250 250 248 250 250 250 253 252 251 249 247 244 244 243 248 248 249 250 250 252 255 258 263 265 268 272 276 279 278 277 275 273
271 267 262 259 256 251 249 245 243 244 244 247 249 250 248 247 251 252 254 253 250 247 248 247 250 245 244 247 250 254 255 256 261 265 270 271 274 275 276 278 279 275 273
274 270 264 261 257 253 250 248 246 243 242 245 247 248 246 248 249 249 254 256 254 256 249 248 247 256 249 246 248 254 257 260 263 264 268 274 277 282 282 282 279 279 275
272 272 271 265 262 257 251 248 246 245 243 241 244 244 247 247 248 247 250 257 258 256 258 253 249 249 258 252 251 252 252 256 260 267 269 270 277 280 278 279 278 276 276
282 279 276 273 266 263 256 251 247 245 245 240 241 243 243 245 246 246 250 252 250 247 251 254 250 247 250 256 251 255 254 254 260 261 270 264 268 274 280 277 271 272 274
281 279 275 270 264 260 257 253 250 247 246 246 239 241 243 243 245 246 246 247 251 252 249 256 249 244 247 249 256 255 260 260 253 261 263 263 268 267 275 274 271 269 270
279 275 273 269 264 258 258 256 252 250 247 244 241 238 242 241 242 243 244 248 250 250 247 250 249 262 251 245 252 255 256 258 261 262 262 265 265 268 273 275 276 272 267
280 272 266 266 262 258 255 255 253 251 250 249 245 238 237 239 238 240 243 246 244 244 252 256 251 258 259 238 244 248 253 261 267 262 263 264 268 275 276 273 277 274 270
284 266 259 258 260 256 250 250 252 250 253 253 252 247 241 238 239 238 241 240 247 240 245 242 249 246 256 259 252 251 260 263 270 272 268 264 271 278 284 285 280 273 274
303 274 255 254 256 255 249 245 249 251 251 254 255 249 241 238 236 238 237 246 235 249 246 245 249 250 247 244 242 259 261 261 265 270 276 274 282 286 289 290 285 279 272
326 287 252 258 255 250 246 246 246 251 252 253 254 253 246 241 237 236 237 236 243 242 243 243 242 239 245 250 254 258 261 263 264 268 272 277 280 283 285 284 280 279 273
Height
3157 3158 3160 3160 3161 3162 3162 3163 3163 3164 3165 3165 3165 3166 3166 3166 3166 3166 3167 3167 3167 3166 3166 3165 3166 3165 3165 3166 3165 3166 3167 3168 3169 3169 3170 3171 3171 3171 3172 3172 3172 3172 3172
3154 3157 3159 3159 3160 3161 3162 3162 3163 3164 3164 3165 3165 3165 3166 3166 3166 3166 3166 3167 3167 3166 3166 3165 3166 3165 3166 3166 3167 3167 3167 3168 3169 3171 3171 3171 3172 3172 3172 3173 3173 3172 3172
3151 3155 3157 3159 3160 3160 3161 3162 3163 3164 3164 3165 3165 3165 3165 3166 3166 3166 3167 3167 3168 3167 3166 3166 3166 3166 3166 3166 3167 3168 3168 3169 3170 3171 3171 3172 3172 3173 3173 3174 3174 3173 3173
3149 3153 3155 3157 3158 3159 3160 3161 3162 3163 3164 3165 3165 3165 3165 3165 3166 3166 3167 3167 3168 3168 3167 3166 3166 3166 3166 3167 3167 3168 3169 3169 3170 3170 3172 3172 3173 3174 3174 3175 3175 3175 3175
3149 3150 3153 3154 3156 3158 3159 3160 3161 3162 3163 3164 3164 3165 3164 3165 3165 3166 3167 3167 3168 3168 3168 3167 3166 3166 3167 3167 3168 3169 3169 3170 3171 3171 3171 3173 3174 3174 3174 3175 3175 3175 3175
3148 3150 3152 3152 3153 3155 3157 3159 3159 3160 3161 3162 3163 3163 3164 3164 3164 3165 3166 3167 3168 3168 3168 3168 3167 3167 3167 3167 3168 3169 3169 3170 3171 3172 3172 3173 3174 3175 3175 3175 3176 3175 3175
3146 3147 3149 3150 3151 3152 3155 3156 3158 3158 3159 3161 3161 3162 3162 3163 3163 3164 3165 3166 3167 3168 3168 3168 3168 3167 3168 3168 3168 3169 3169 3170 3171 3172 3173 3174 3174 3175 3175 3175 3175 3175 3175
3144 3145 3146 3148 3150 3151 3152 3154 3155 3157 3157 3158 3160 3161 3161 3161 3162 3163 3164 3165 3166 3167 3167 3168 3168 3168 3168 3168 3169 3170 3170 3170 3171 3171 3173 3173 3174 3174 3175 3175 3175 3175 3175
3141 3142 3145 3146 3148 3149 3150 3151 3153 3154 3155 3155 3157 3159 3159 3160 3161 3161 3162 3163 3165 3165 3166 3167 3167 3167 3168 3168 3169 3170 3170 3170 3170 3171 3172 3172 3172 3173 3173 3174 3174 3174 3174
3138 3140 3141 3143 3144 3146 3147 3149 3151 3152 3153 3153 3154 3155 3156 3158 3159 3160 3161 3162 3163 3164 3165 3166 3166 3167 3167 3168 3168 3169 3169 3169 3170 3170 3171 3171 3171 3172 3172 3172 3172 3173 3173
3134 3136 3138 3140 3141 3143 3144 3146 3147 3149 3150 3151 3152 3151 3153 3154 3156 3157 3158 3160 3161 3162 3163 3164 3165 3166 3167 3167 3168 3168 3168 3168 3169 3168 3169 3169 3170 3170 3171 3171 3171 3171 3171
3130 3132 3133 3135 3137 3138 3139 3141 3143 3145 3147 3148 3149 3150 3152 3152 3153 3154 3155 3156 3158 3159 3161 3162 3163 3165 3166 3166 3166 3167 3166 3167 3167 3167 3167 3167 3168 3168 3169 3169 3169 3169 3169
3125 3127 3129 3130 3132 3133 3134 3136 3138 3140 3142 3143 3145 3147 3148 3150 3150 3151 3151 3153 3155 3156 3158 3160 3161 3163 3164 3165 3165 3165 3165 3165 3165 3165 3166 3166 3166 3166 3166 3166 3167 3167 3167
3120 3122 3123 3124 3126 3128 3129 3131 3133 3134 3136 3138 3140 3142 3144 3146 3147 3148 3149 3149 3150 3152 3154 3156 3158 3160 3161 3161 3163 3163 3163 3163 3163 3163 3164 3164 3164 3165 3165 3165 3165 3164 3164
3114 3115 3117 3117 3119 3121 3122 3125 3127 3129 3129 3132 3134 3136 3138 3141 3142 3143 3146 3146 3147 3148 3149 3152 3154 3155 3156 3157 3158 3160 3160 3161 3161 3161 3162 3162 3162 3162 3162 3162 3162 3162 3162
3107 3108 3108 3109 3111 3113 3114 3117 3119 3122 3124 3125 3127 3130 3132 3135 3137 3138 3140 3143 3143 3144 3145 3147 3149 3150 3152 3153 3154 3155 3156 3156 3157 3158 3159 3160 3160 3160 3160 3160 3160 3160 3160
3099 3099 3100 3101 3101 3103 3105 3108 3111 3114 3117 3118 3120 3123 3125 3128 3131 3133 3133 3136 3138 3140 3141 3141 3142 3144 3146 3147 3149 3151 3152 3153 3154 3154 3155 3156 3156 3157 3157 3157 3157 3157 3157
3087 3088 3090 3090 3091 3092 3094 3097 3100 3103 3108 3110 3112 3115 3119 3121 3125 3126 3128 3129 3132 3134 3136 3137 3137 3138 3140 3141 3143 3145 3147 3148 3149 3150 3151 3152 3153 3154 3154 3154 3154 3154 3154
3077 3077 3078 3081 3080 3081 3083 3085 3088 3091 3095 3100 3103 3107 3110 3114 3118 3119 3121 3123 3125 3129 3131 3132 3133 3132 3133 3135 3138 3139 3141 3141 3143 3145 3146 3146 3147 3149 3149 3150 3150 3149 3149
3067 3068 3069 3069 3070 3070 3073 3074 3076 3078 3081 3088 3093 3097 3102 3106 3109 3111 3113 3115 3117 3119 3122 3125 3127 3127 3128 3131 3131 3133 3134 3135 3136 3139 3140 3140 3141 3142 3142 3143 3143 3144 3144
3059 3056 3056 3057 3060 3059 3060 3062 3065 3067 3072 3074 3081 3087 3091 3096 3100 3103 3105 3107 3110 3112 3116 3118 3120 3121 3122 3123 3125 3126 3127 3129 3130 3132 3133 3134 3134 3135 3135 3137 3137 3137 3138
3047 3046 3043 3044 3046 3049 3049 3050 3053 3056 3058 3061 3068 3075 3079 3085 3090 3094 3096 3101 3103 3105 3107 3110 3112 3115 3115 3116 3118 3119 3120 3122 3124 3125 3126 3127 3128 3128 3128 3128 3129 3129 3129
3035 3032 3031 3030 3034 3037 3040 3041 3043 3045 3047 3050 3054 3061 3067 3073 3079 3083 3087 3092 3095 3095 3100 3104 3104 3105 3109 3108 3111 3113 3113 3115 3117 3118 3119 3118 3120 3120 3121 3122 3120 3120 3120
3018 3015 3015 3017 3021 3025 3028 3031 3034 3038 3039 3041 3044 3053 3058 3063 3069 3074 3079 3082 3085 3089 3091 3095 3097 3097 3098 3102 3103 3105 3105 3108 3107 3108 3110 3111 3111 3112 3113 3112 3112 3111 3110
3001 2998 3003 3006 3010 3015 3017 3022 3025 3029 3032 3032 3035 3040 3046 3052 3057 3063 3069 3074 3075 3080 3084 3087 3089 3091 3093 3095 3096 3097 3099 3100 3100 3097 3097 3101 3099 3099 3101 3100 3100 3100 3101
2997 2993 2996 3000 3002 3006 3010 3014 3018 3021 3024 3025 3027 3031 3036 3040 3046 3053 3059 3064 3069 3073 3076 3077 3080 3082 3085 3086 3088 3088 3089 3089 3091 3092 3090 3089 3090 3089 3088 3091 3089 3089 3091